Regional Weather Roundup
Issued by NWS

Home | Current Version | Previous Version | Text Only | Print | Product List | Glossary Off
Versions: 1 2 3 4 5 6 7 8 9 10 11 12 13 14 15 16 17 18 19 20 21 22 23 24 25 26 27 28 29 30 31 32 33 34 35 36 37 38 39 40 41 42 43 44 45 46 47 48 49 50

000
ASUS43 KDMX 220901
RWRIA

WEATHER ROUNDUP FOR IOWA
NATIONAL WEATHER SERVICE DES MOINES IA
300 AM CST MON JAN 22 2018

NOTE: "FAIR" INDICATES FEW OR NO CLOUDS BELOW 12,000 FEET WITH NO
SIGNIFICANT WEATHER AND/OR OBSTRUCTIONS TO VISIBILITY.

* - THESE STATIONS ARE NOT NWS STATIONS...THUS NOT UNDER NWS
QUALITY CONTROL.  THEY ALSO DO NOT REPORT WEATHER SUCH
AS PRECIPITATION OR FOG.

IAZ001>003-012>014-020>022-031>034-043>046-221000-
   NORTHWEST IOWA

CITY           SKY/WX    TMP DP  RH WIND       PRES   REMARKS
CARROLL *      LGT RAIN  36  36 100 NE17G24   29.55F WCI  25
DENISON *      CLOUDY    34  34 100 NE23G33   29.53F FOG     WCI  22
LE MARS *      FLURRIES  34  32  93 N22G29    29.64F WCI  22
ORANGE CITY *  PTCLDY    36  32  87 NE20G29   29.65F WCI  25
SHELDON *      CLOUDY    34  30  86 N24G31    29.68F WCI  21
SIOUX CITY     CLOUDY    34  32  92 N18G30    29.61F WCI  23
SPENCER        CLOUDY    35  31  85 NE26G33   29.67F WCI  22
STORM LAKE *   CLOUDY    34  32  93 NE26G36   29.60R FOG     WCI  21
$$

IAZ055>058-069>071-079>083-090>094-221000-
   SOUTHWEST IOWA

CITY           SKY/WX    TMP DP  RH WIND       PRES   REMARKS
ATLANTIC *     HVY RAIN  37  37 100 VRB6G24   29.55R WCI  33
AUDUBON *      LGT RAIN  36  34  93 NE17G23   29.51F WCI  25
CLARINDA *     CLOUDY    39  39 100 NE6G22      N/A  WCI  35
COUNCIL BLFS * CLOUDY    36  36 100 NE15G31   29.45F WCI  26
CRESTON *      LGT RAIN  37  37 100 NE18      29.47F VSB 3/4 WCI  27
HARLAN  *      LGT RAIN  36  36 100 CALM      29.59R
LAMONI         FOG       41  40  96 N9        29.46F VSB 3/4
RED OAK *      CLOUDY    39  39 100 NE20G28   29.42F WCI  30
SHENANDOAH *   CLOUDY    39  39 100 N8G17     29.43S WCI  34
$$

IAZ047>049-059>061-072>074-084-221000-
   CENTRAL IOWA

CITY           SKY/WX    TMP DP  RH WIND       PRES   REMARKS
AMES           CLOUDY    38  38 100 NE13      29.56F WCI  30
ANKENY *       CLOUDY    37  37 100 NE12      29.53F WCI  30
BOONE *        CLOUDY    37  37 100 NE18      29.54F FOG     WCI  27
CHARITON *     LGT RAIN  43  43 100 SE7       29.48F
DES MOINES     CLOUDY    39  38  96 N14       29.50F WCI  31
GRINNELL*      RAIN      39  38  97 E8        29.54F WCI  34
KNOXVILLE *    LGT RAIN  41  41 100 VRB6G14   29.48F
MARSHALLTOWN   LGT RAIN  37  37 100 NE20      29.54F FOG     WCI  27
NEWTON *       CLOUDY    39  39 100 NE14G20   29.53F WCI  31
PELLA *        LGT RAIN  41  41  99 N6        29.54S
$$

IAZ004>006-015-016-023>025-035-036-221000-
   NORTH CENTRAL IOWA

CITY           SKY/WX    TMP DP  RH WIND       PRES   REMARKS
ALGONA *       LGT SNOW  34 N/A N/A NE28      29.63F WCI  20
CLARION *      CLOUDY    36  36 100 NE31G38   29.56F FOG     WCI  22
ESTHERVILLE    LGT SNOW  32  31  96 N24G31    29.70F FOG     WCI  19
FORT DODGE *   LGT SNOW  35  34  96 NE10G20   29.62R FOG     WCI  27
MASON CITY     RAIN      35  33  92 NE22      29.66F FOG     WCI  23
FOREST CITY *  RAIN      36  34  93 NE20      29.65F WCI  25
WEBSTER CITY * LGT RAIN  37  37 100 NE15G22   29.56S WCI  28
IOWA FALLS *   LGT RAIN  37  37  97 NE15      29.59F WCI  28
$$

IAZ007>011-017>019-026>030-037>042-050>054-066-221000-
   NORTHEAST IOWA

CITY           SKY/WX    TMP DP  RH WIND       PRES   REMARKS
CEDAR RAPIDS   FOG       42  41  96 E12       29.57F VSB 3/4
CHARLES CITY * RAIN      37  37 100 NE22      29.65F WCI  27
CLINTON *      LGT RAIN  41  41 100 E13       29.63F VSB 3/4
DECORAH *      LGT RAIN  37  37 100 NE14G20   29.70S WCI  29
DUBUQUE        RAIN      36  36 100 NE17      29.66F FOG     WCI  26
MONTICELLO *   LGT RAIN  39  39 100 NE10G17   29.62F WCI  32
OELWEIN *      LGT RAIN  37  37 100 NE20      29.63F WCI  27
WATERLOO       RAIN      37  36  96 NE18G29   29.59F FOG     WCI  27
$$

IAZ064-065-067-068-078-221000-
   EAST CENTRAL IOWA

CITY           SKY/WX    TMP DP  RH WIND       PRES   REMARKS
DAVENPORT      FOG       47  45  93 E12       29.61F VSB 1/4
IOWA CITY      FOG       43  41  93 NE10      29.57F VSB 3/4
MT. PLEASANT * CLOUDY    54  46  76 S17G23    29.54F
MUSCATINE *    MOCLDY    48  46  93 W6        29.58S FOG
QUAD CITIES    LGT RAIN  51  50  96 N9        29.58S FOG
$$

IAZ062-063-075>077-085>089-095>099-221000-
   SOUTHEAST IOWA

CITY           SKY/WX    TMP DP  RH WIND       PRES   REMARKS
BURLINGTON     CLOUDY    52  50  93 S12       29.55S
FAIRFIELD *    CLOUDY    54  48  82 SE21G29   29.50F
FORT MADISON * LGT RAIN  52  52 100 SE12      29.56F
KEOKUK *       CLOUDY    54  52  94 SE13G18   29.55F
OTTUMWA        CLOUDY    52  52 100 S13       29.50F
WASHINGTON *   CLOUDY    46  46 100 E15       29.51F FOG
$$

ABBREVIATIONS USED IN REMARKS
   TC - TEMPERATURES IN CELSIUS
  WCI - WIND CHILL INDEX
   HX - HEAT INDEX
  VSB - VISIBILITY
$$





USA.gov is the U.S. government's official web portal to all federal, state and local government web resources and services.